TimeEST,TemperatureF,Dew PointF,Humidity,Sea Level PressureIn,VisibilityMPH,Wind Direction,Wind SpeedMPH,Gust SpeedMPH,PrecipitationIn,Events,Conditions,WindDirDegrees,DateUTC
12:10 AM,58.3,52.5,81,30.16,10.0,Calm,Calm,-,N/A,,Scattered Clouds,0,2012-12-03 05:10:00
12:30 AM,57.2,52.0,83,30.15,10.0,Calm,Calm,-,N/A,,Scattered Clouds,0,2012-12-03 05:30:00
12:50 AM,50.5,50.0,98,30.15,10.0,Calm,Calm,-,N/A,,Clear,0,2012-12-03 05:50:00
1:15 AM,49.3,49.3,100,30.16,7.0,Calm,Calm,-,N/A,,Clear,0,2012-12-03 06:15:00
1:35 AM,49.8,49.8,100,30.16,5.0,Calm,Calm,-,N/A,,Clear,0,2012-12-03 06:35:00
1:55 AM,47.5,47.5,100,30.17,2.5,Calm,Calm,-,N/A,,Clear,0,2012-12-03 06:55:00
2:20 AM,47.3,47.3,100,30.17,3.0,Calm,Calm,-,N/A,,Clear,0,2012-12-03 07:20:00
2:40 AM,46.6,46.6,100,30.18,0.5,Calm,Calm,-,N/A,,Unknown,0,2012-12-03 07:40:00
3:00 AM,46.2,46.2,100,30.18,1.2,Calm,Calm,-,N/A,,Scattered Clouds,0,2012-12-03 08:00:00
3:45 AM,44.6,44.6,100,30.17,0.5,Calm,Calm,-,N/A,,Unknown,0,2012-12-03 08:45:00
4:05 AM,45.1,45.1,100,30.17,1.0,Calm,Calm,-,N/A,,Unknown,0,2012-12-03 09:05:00
4:25 AM,44.2,44.2,100,30.18,0.5,Calm,Calm,-,N/A,,Unknown,0,2012-12-03 09:25:00
4:45 AM,43.7,43.7,100,30.18,1.0,Calm,Calm,-,N/A,,Unknown,0,2012-12-03 09:45:00
5:10 AM,43.3,43.3,100,30.19,0.8,Calm,Calm,-,N/A,,Unknown,0,2012-12-03 10:10:00
5:30 AM,43.7,43.7,100,30.19,1.0,Calm,Calm,-,N/A,,Unknown,0,2012-12-03 10:30:00
5:50 AM,43.9,43.9,100,30.19,3.0,Calm,Calm,-,N/A,,Clear,0,2012-12-03 10:50:00
6:15 AM,43.3,43.3,100,30.21,0.8,Calm,Calm,-,N/A,,Unknown,0,2012-12-03 11:15:00
6:35 AM,42.8,42.8,100,30.21,1.0,Calm,Calm,-,N/A,,Unknown,0,2012-12-03 11:35:00
6:45 AM,42.8,42.8,100,30.22,2.0,Calm,Calm,-,N/A,,Clear,0,2012-12-03 11:45:00
7:15 AM,42.3,42.3,100,30.23,0.5,Calm,Calm,-,N/A,,Unknown,0,2012-12-03 12:15:00
8:00 AM,43.3,43.3,100,30.24,2.0,Calm,Calm,-,N/A,,Clear,0,2012-12-03 13:00:00
8:20 AM,45.0,45.0,100,30.25,4.0,Calm,Calm,-,N/A,,Clear,0,2012-12-03 13:20:00
8:40 AM,47.5,47.5,100,30.25,5.0,Calm,Calm,-,N/A,,Clear,0,2012-12-03 13:40:00
9:45 AM,57.9,53.1,84,30.26,10.0,Calm,Calm,-,N/A,,Clear,0,2012-12-03 14:45:00
10:05 AM,60.3,53.2,78,30.27,10.0,Calm,Calm,-,N/A,,Mostly Cloudy,0,2012-12-03 15:05:00
10:50 AM,64.0,54.1,70,30.25,10.0,Calm,Calm,-,N/A,,Mostly Cloudy,0,2012-12-03 15:50:00
11:10 AM,64.8,54.5,69,30.25,10.0,Calm,Calm,-,N/A,,Scattered Clouds,0,2012-12-03 16:10:00
11:30 AM,67.3,55.0,65,30.24,10.0,Calm,Calm,-,N/A,,Clear,0,2012-12-03 16:30:00
11:50 AM,68.4,55.6,64,30.23,10.0,Calm,Calm,-,N/A,,Clear,0,2012-12-03 16:50:00
12:15 PM,69.3,55.4,61,30.22,10.0,South,4.6,-,N/A,,Mostly Cloudy,170,2012-12-03 17:15:00
12:35 PM,69.8,55.6,61,30.21,10.0,Calm,Calm,-,N/A,,Scattered Clouds,0,2012-12-03 17:35:00
12:55 PM,71.1,56.1,59,30.20,10.0,Calm,Calm,-,N/A,,Clear,0,2012-12-03 17:55:00
1:15 PM,71.6,56.3,58,30.20,10.0,Calm,Calm,-,N/A,,Clear,0,2012-12-03 18:15:00
1:40 PM,71.6,56.5,59,30.20,10.0,WNW,3.5,-,N/A,,Clear,290,2012-12-03 18:40:00
2:00 PM,72.0,56.7,58,30.20,10.0,West,4.6,-,N/A,,Clear,260,2012-12-03 19:00:00
2:20 PM,72.0,56.3,58,30.20,10.0,Calm,Calm,-,N/A,,Clear,0,2012-12-03 19:20:00
2:40 PM,71.8,56.3,58,30.20,10.0,WNW,4.6,-,N/A,,Clear,300,2012-12-03 19:40:00
3:05 PM,70.9,56.5,60,30.20,10.0,Calm,Calm,-,N/A,,Scattered Clouds,0,2012-12-03 20:05:00
3:25 PM,71.1,55.9,59,30.20,10.0,SW,3.5,-,N/A,,Scattered Clouds,220,2012-12-03 20:25:00
4:05 PM,70.7,55.8,59,30.21,10.0,Calm,Calm,-,N/A,,Overcast,0,2012-12-03 21:05:00
4:30 PM,69.3,56.1,63,30.21,10.0,Calm,Calm,-,N/A,,Overcast,0,2012-12-03 21:30:00
4:50 PM,66.6,56.3,69,30.21,10.0,Calm,Calm,-,N/A,,Mostly Cloudy,0,2012-12-03 21:50:00
5:10 PM,65.1,55.4,71,30.21,10.0,Calm,Calm,-,N/A,,Scattered Clouds,0,2012-12-03 22:10:00
5:30 PM,60.3,54.5,81,30.22,10.0,Calm,Calm,-,N/A,,Clear,0,2012-12-03 22:30:00
5:55 PM,58.1,53.8,86,30.22,10.0,Calm,Calm,-,N/A,,Clear,0,2012-12-03 22:55:00
6:15 PM,57.2,54.9,92,30.23,10.0,Calm,Calm,-,N/A,,Clear,0,2012-12-03 23:15:00
6:35 PM,55.2,53.4,94,30.24,10.0,Calm,Calm,-,N/A,,Scattered Clouds,0,2012-12-03 23:35:00
6:55 PM,57.0,54.9,92,30.25,10.0,Calm,Calm,-,N/A,,Mostly Cloudy,0,2012-12-03 23:55:00
7:20 PM,56.3,54.3,93,30.25,10.0,Calm,Calm,-,N/A,,Mostly Cloudy,0,2012-12-04 00:20:00
7:40 PM,57.0,54.5,91,30.24,10.0,Calm,Calm,-,N/A,,Overcast,0,2012-12-04 00:40:00
8:00 PM,55.6,53.1,91,30.24,10.0,Calm,Calm,-,N/A,,Mostly Cloudy,0,2012-12-04 01:00:00
8:20 PM,54.1,53.4,97,30.24,10.0,Calm,Calm,-,N/A,,Scattered Clouds,0,2012-12-04 01:20:00
8:45 PM,53.4,52.9,98,30.24,10.0,Calm,Calm,-,N/A,,Clear,0,2012-12-04 01:45:00
9:05 PM,52.2,51.4,97,30.24,10.0,Calm,Calm,-,N/A,,Clear,0,2012-12-04 02:05:00
9:25 PM,52.0,52.0,100,30.25,10.0,Calm,Calm,-,N/A,,Mostly Cloudy,0,2012-12-04 02:25:00
9:45 PM,51.6,51.6,100,30.24,7.0,Calm,Calm,-,N/A,,Scattered Clouds,0,2012-12-04 02:45:00
10:10 PM,51.4,51.4,100,30.24,7.0,Calm,Calm,-,N/A,,Clear,0,2012-12-04 03:10:00
10:50 PM,49.5,49.5,100,30.24,7.0,Calm,Calm,-,N/A,,Clear,0,2012-12-04 03:50:00
11:10 PM,49.8,49.8,100,30.24,7.0,Calm,Calm,-,N/A,,Clear,0,2012-12-04 04:10:00
11:35 PM,49.1,49.1,100,30.24,7.0,Calm,Calm,-,N/A,,Clear,0,2012-12-04 04:35:00
11:55 PM,48.4,48.4,100,30.24,3.0,Calm,Calm,-,N/A,,Clear,0,2012-12-04 04:55:00